Wind_Speed
14 15 14 14 14 15 14 12 10 9 10 11 11 12 12 13 14 14 15 16 16 17 17 18 19 19 18 19 19 20 20 21 21 22 22 23 23 24 24 23 23 23 24 24
13 13 13 14 14 14 13 10 9 9 10 12 12 13 14 14 15 16 17 18 18 17 17 19 21 21 19 19 20 21 20 21 22 22 23 24 24 24 23 24 24 24 24 25
12 12 14 13 12 11 11 10 10 11 12 15 16 17 16 17 18 18 19 18 18 17 18 19 20 21 21 21 21 21 21 21 22 23 23 24 24 24 24 24 24 24 25 26
13 13 12 12 11 11 10 10 11 12 14 16 19 20 19 20 20 20 19 18 19 18 18 19 19 20 21 21 21 21 21 22 23 24 24 25 24 25 25 24 24 25 26 27
12 12 11 10 9 10 11 12 13 13 15 17 18 21 21 21 21 21 21 19 18 18 18 19 18 20 21 21 21 20 21 23 24 25 25 25 26 26 26 25 26 26 27 27
11 11 10 9 10 12 14 14 15 15 16 18 19 22 23 23 22 22 21 20 20 19 18 19 19 20 21 21 21 23 23 23 24 25 26 26 27 27 26 27 27 27 27 26
10 10 9 9 10 12 13 15 16 17 18 19 20 22 23 23 23 22 21 21 21 19 18 18 19 20 21 21 21 22 22 24 25 26 26 27 27 27 26 27 27 27 26 26
9 10 10 10 11 12 13 14 16 18 19 18 19 22 23 24 23 22 22 21 20 19 18 19 20 20 20 20 21 22 22 23 24 25 25 26 26 25 26 26 26 26 26 26
10 9 10 11 12 12 13 15 16 18 19 20 19 20 21 21 21 19 19 19 19 19 19 20 20 20 21 22 21 22 23 23 24 24 25 26 25 25 24 25 25 26 25 25
9 10 10 11 12 13 14 15 16 17 18 19 20 20 18 17 18 17 16 18 20 20 19 20 20 20 21 22 22 21 22 22 23 24 24 24 24 24 24 24 23 24 23 23
10 11 11 12 12 13 14 15 15 16 18 19 19 19 17 17 17 17 18 18 18 19 19 19 20 21 21 21 21 21 21 22 22 22 22 22 23 23 24 23 23 23 21 21
11 11 11 12 13 13 14 15 15 16 16 18 19 19 18 18 18 18 18 18 18 18 19 19 19 20 20 20 21 21 21 21 20 20 20 21 21 22 21 21 21 20 20 20
12 12 12 12 13 13 15 15 16 17 17 17 17 19 19 19 18 18 19 19 18 19 18 19 20 20 19 20 21 20 19 19 19 19 19 19 19 20 19 19 19 19 19 19
11 12 12 13 13 14 15 15 15 17 17 17 17 17 17 17 17 18 18 18 18 18 18 18 18 18 18 18 18 18 17 16 17 17 17 18 18 17 17 17 18 18 17 17
12 11 12 12 13 14 14 14 14 15 17 17 16 16 16 17 18 18 18 18 18 17 18 18 16 16 17 17 16 16 15 16 16 16 16 15 15 15 15 15 16 16 16 15
12 11 12 12 13 13 14 13 14 15 16 15 15 15 16 16 16 17 18 18 18 18 18 17 16 16 16 16 16 15 14 14 15 15 14 14 13 13 14 14 15 15 14 13
11 11 11 12 12 13 12 11 12 13 14 14 14 15 16 16 16 17 17 17 18 17 17 16 16 16 16 15 14 13 13 14 14 13 12 12 12 12 12 13 13 13 12 11
11 11 11 12 12 11 10 10 11 12 13 13 13 15 15 15 16 17 17 17 18 17 17 16 16 15 14 14 13 12 12 12 12 11 10 11 10 10 11 11 12 11 11 10
10 10 10 11 10 10 10 10 10 11 11 12 13 14 15 16 17 17 17 17 17 17 16 15 14 13 12 11 11 10 10 11 10 9 9 9 9 9 9 10 10 10 10 9
8 9 9 10 10 9 9 9 9 10 10 12 13 14 16 16 17 17 17 16 16 15 14 12 11 10 9 9 8 8 8 8 8 7 7 7 7 7 7 8 9 9 9 8
7 7 8 9 9 8 8 8 9 9 11 12 13 14 15 15 16 16 15 14 13 12 11 10 9 7 7 7 6 6 6 6 6 6 6 6 6 6 6 7 7 8 8 8
7 7 8 8 8 8 8 9 9 9 10 12 12 13 13 14 14 14 13 12 10 9 8 7 6 6 6 5 5 5 4 4 4 4 5 5 5 6 6 7 7 7 8 8
7 7 7 7 7 7 7 8 8 9 10 11 11 11 12 12 12 11 11 10 8 7 6 6 6 5 5 5 4 4 4 4 3 4 5 5 5 5 6 6 7 7 8 8
7 7 7 7 8 8 7 7 7 8 9 10 9 10 11 11 11 11 10 9 7 6 5 5 5 5 5 5 4 4 4 4 4 4 5 5 5 5 5 6 6 7 7 8
7 7 7 7 7 7 7 6 6 7 9 8 9 10 10 11 11 10 9 8 7 7 6 5 5 5 5 5 5 5 5 5 5 5 5 5 5 5 5 5 6 7 7 7
7 7 7 7 7 7 6 6 6 7 8 8 8 9 9 10 10 9 9 8 7 7 6 6 6 6 6 6 6 6 5 5 5 5 6 5 5 5 5 6 6 6 6 6
Wind_Direction
185 189 188 192 197 197 202 210 220 223 236 253 263 267 273 281 284 282 282 283 285 284 284 286 290 288 289 287 287 287 288 288 290 291 291 293 293 293 291 288 287 286 285 285
175 180 182 185 190 194 198 209 222 233 251 266 269 270 273 284 288 287 287 287 285 288 286 290 292 287 288 286 285 286 288 289 290 291 290 291 292 292 291 290 289 289 287 286
167 172 178 183 191 200 205 219 230 239 256 264 270 275 280 286 286 288 288 288 284 285 289 290 289 287 287 286 282 282 286 287 289 290 290 292 292 292 290 288 288 288 288 286
168 171 177 184 190 204 207 221 233 239 253 264 271 275 282 286 285 287 290 292 285 286 290 289 289 291 290 288 283 284 285 286 289 290 291 291 291 292 290 288 288 288 288 286
183 184 185 193 203 216 222 232 240 243 253 261 270 277 281 283 283 286 288 290 288 288 294 293 289 293 294 290 290 289 289 287 288 290 290 289 290 291 291 290 289 288 288 287
197 198 198 205 219 232 235 238 242 248 254 259 267 274 278 280 281 282 283 287 290 289 295 298 297 298 298 294 292 289 289 288 289 290 289 289 290 291 291 291 291 291 290 289
204 209 213 221 226 234 240 240 243 249 255 262 268 271 275 275 277 278 279 282 288 292 296 299 300 302 301 297 296 293 293 291 291 291 291 291 291 290 291 291 292 292 291 289
215 220 229 234 237 241 245 247 248 252 259 265 269 275 278 276 277 278 280 281 285 289 293 296 299 300 298 298 297 296 295 294 294 293 291 291 290 290 291 292 292 293 291 290
231 229 236 242 248 248 251 253 255 260 264 270 275 280 284 280 282 284 283 284 288 291 294 295 297 297 297 298 299 298 297 296 294 294 293 291 291 291 293 294 295 294 291 289
249 250 246 250 256 254 254 258 259 263 269 274 277 285 291 289 286 289 291 290 289 289 292 295 297 299 301 299 298 298 297 296 296 295 293 293 293 295 296 296 296 294 291 289
261 261 260 261 264 260 258 261 265 267 273 278 283 287 291 297 294 297 301 299 296 292 295 297 299 300 300 298 297 298 297 297 296 296 295 294 296 297 297 297 297 297 295 294
259 260 259 261 262 261 265 270 271 270 276 281 285 289 292 299 301 300 301 303 301 297 296 296 298 300 302 302 300 298 298 297 295 296 298 300 299 299 299 299 300 301 300 298
264 262 262 262 262 263 265 270 271 274 279 283 287 292 295 300 303 303 303 303 300 298 299 296 297 299 300 304 302 301 299 296 294 295 297 301 303 302 301 301 301 303 303 303
269 268 265 267 265 267 266 270 274 278 283 287 292 296 296 299 299 302 303 303 302 300 300 298 298 301 304 305 307 307 302 299 300 301 303 304 305 306 305 305 306 307 307 308
266 270 268 267 266 265 268 275 280 282 286 290 296 298 298 299 300 301 303 304 305 305 304 304 302 304 306 307 308 307 303 301 303 305 308 309 308 312 313 314 314 312 310 310
262 265 266 266 267 269 273 280 284 286 290 294 297 297 299 301 304 305 307 305 304 305 305 306 306 305 305 306 307 305 304 304 304 306 309 310 311 315 316 317 318 316 315 315
262 266 267 267 267 273 279 284 285 288 294 298 300 302 302 304 306 307 305 306 305 304 304 304 301 301 304 304 306 306 306 306 305 307 308 311 313 314 317 319 320 321 323 325
264 272 273 272 272 278 287 287 289 293 299 301 302 305 307 307 309 308 309 309 307 304 304 304 304 304 305 305 305 305 307 309 308 306 307 309 314 318 320 324 328 329 331 333
268 274 278 277 279 285 288 290 291 297 303 308 310 311 310 311 311 312 312 311 309 307 307 306 306 305 306 308 309 305 307 310 310 311 312 313 320 325 327 331 337 341 345 348
262 270 276 280 282 290 292 290 298 302 306 313 316 317 316 315 314 314 315 314 312 311 310 309 308 308 309 311 313 310 312 316 318 322 324 326 331 331 335 344 350 353 358 3
260 267 274 280 285 290 295 301 309 315 322 323 321 321 322 320 319 320 321 320 319 318 317 317 317 316 318 319 318 316 319 325 331 331 334 333 338 343 350 356 2 3 9 14
263 267 274 280 287 293 298 310 318 325 325 326 327 329 330 328 327 328 329 328 328 328 327 330 330 326 327 327 327 326 327 329 335 344 347 354 4 9 9 11 13 16 21 23
265 272 278 287 297 301 305 315 323 327 329 332 335 339 342 342 342 344 343 340 339 340 340 342 343 341 340 341 345 344 353 360 357 354 359 2 12 18 20 22 24 30 31 32
258 264 272 283 294 302 311 323 328 330 333 336 340 345 352 354 356 355 355 358 0 2 5 8 12 12 10 13 20 20 22 26 23 24 25 28 28 30 28 28 30 30 34 38
253 264 274 283 292 301 310 323 329 331 336 341 345 352 359 1 2 2 5 11 19 24 29 29 27 26 30 34 39 42 42 40 43 41 41 43 45 43 35 35 37 38 43 44
252 263 272 284 296 304 315 322 330 339 341 345 347 354 2 6 7 11 19 26 30 35 41 41 37 41 44 44 46 47 45 51 51 52 52 52 48 43 37 37 36 36 42 44
Height
5855 5859 5861 5864 5865 5867 5868 5870 5871 5872 5873 5873 5874 5874 5875 5874 5874 5874 5873 5871 5870 5870 5870 5869 5867 5865 5864 5862 5861 5859 5858 5857 5855 5854 5852 5851 5849 5847 5845 5844 5842 5840 5839 5837
5856 5858 5860 5861 5863 5865 5866 5867 5868 5870 5870 5870 5870 5871 5871 5871 5871 5870 5869 5867 5866 5866 5865 5864 5863 5860 5860 5858 5856 5855 5853 5852 5850 5849 5847 5845 5843 5841 5839 5838 5836 5834 5833 5831
5854 5857 5858 5860 5861 5863 5864 5865 5866 5867 5867 5867 5867 5867 5867 5867 5866 5865 5864 5863 5862 5861 5860 5860 5858 5856 5855 5853 5851 5850 5848 5847 5845 5843 5841 5839 5837 5836 5834 5832 5830 5828 5826 5824
5853 5855 5856 5857 5859 5860 5862 5863 5863 5864 5864 5864 5865 5864 5864 5863 5862 5861 5860 5858 5858 5857 5856 5855 5853 5851 5850 5848 5846 5845 5843 5842 5840 5838 5836 5834 5832 5830 5828 5826 5824 5821 5819 5817
5852 5853 5854 5856 5857 5858 5859 5860 5861 5861 5861 5862 5861 5860 5861 5858 5858 5857 5856 5855 5854 5853 5852 5850 5848 5846 5844 5843 5841 5839 5838 5836 5834 5832 5830 5828 5826 5823 5821 5819 5816 5814 5812 5809
5851 5852 5853 5854 5856 5856 5857 5858 5858 5858 5858 5858 5858 5857 5856 5855 5853 5852 5851 5850 5849 5848 5847 5845 5843 5842 5839 5837 5835 5833 5831 5830 5828 5826 5824 5821 5819 5816 5814 5812 5809 5806 5804 5802
5851 5852 5852 5852 5853 5854 5855 5856 5856 5855 5855 5855 5854 5852 5852 5850 5849 5848 5847 5846 5845 5844 5842 5840 5839 5837 5834 5832 5829 5827 5825 5823 5821 5819 5817 5814 5812 5810 5807 5805 5802 5799 5796 5794
5848 5850 5850 5850 5851 5851 5851 5852 5853 5852 5852 5851 5850 5848 5848 5846 5845 5843 5842 5841 5840 5839 5837 5835 5833 5831 5829 5826 5824 5822 5819 5817 5815 5813 5810 5808 5806 5803 5801 5798 5795 5792 5789 5787
5846 5847 5848 5847 5847 5848 5848 5848 5849 5848 5847 5847 5846 5844 5842 5841 5840 5838 5837 5836 5835 5834 5832 5830 5828 5826 5824 5821 5819 5816 5813 5811 5809 5807 5804 5802 5799 5797 5794 5791 5788 5785 5783 5780
5844 5845 5845 5845 5845 5845 5845 5845 5845 5844 5843 5842 5842 5840 5839 5838 5836 5835 5833 5831 5830 5828 5826 5824 5821 5819 5818 5815 5813 5810 5808 5805 5803 5801 5798 5796 5793 5791 5788 5785 5782 5779 5776 5774
5841 5842 5843 5842 5841 5841 5841 5841 5840 5840 5840 5839 5837 5838 5835 5834 5832 5831 5829 5827 5825 5822 5820 5818 5816 5814 5812 5809 5807 5804 5802 5799 5797 5794 5792 5790 5787 5785 5782 5779 5776 5773 5770 5767
5839 5839 5839 5839 5839 5838 5838 5837 5837 5837 5836 5835 5833 5835 5831 5829 5828 5826 5824 5822 5819 5817 5815 5812 5811 5809 5806 5804 5802 5799 5797 5794 5791 5789 5787 5784 5782 5779 5776 5773 5770 5767 5764 5762
5836 5836 5837 5836 5837 5836 5834 5834 5833 5833 5832 5830 5829 5831 5826 5825 5823 5821 5819 5817 5815 5813 5810 5808 5806 5804 5801 5799 5796 5794 5791 5789 5787 5784 5782 5779 5776 5774 5771 5768 5765 5762 5759 5756
5833 5833 5834 5834 5833 5832 5831 5831 5830 5829 5828 5827 5825 5824 5823 5821 5819 5817 5814 5812 5810 5808 5806 5803 5801 5798 5796 5794 5791 5789 5786 5784 5782 5779 5777 5774 5772 5769 5766 5763 5761 5758 5755 5752
5830 5830 5829 5829 5829 5828 5828 5827 5827 5826 5824 5823 5822 5820 5819 5817 5815 5812 5810 5807 5805 5803 5801 5798 5796 5793 5791 5789 5787 5785 5782 5780 5777 5775 5773 5770 5768 5765 5762 5759 5756 5753 5750 5747
5826 5827 5826 5826 5825 5825 5824 5824 5823 5822 5821 5819 5818 5817 5815 5812 5810 5807 5805 5803 5800 5798 5796 5794 5791 5789 5787 5785 5782 5780 5778 5776 5774 5772 5769 5767 5764 5761 5759 5756 5753 5750 5747 5744
5823 5823 5823 5823 5822 5822 5821 5821 5819 5819 5817 5816 5814 5813 5810 5808 5806 5803 5800 5798 5796 5793 5791 5789 5787 5785 5783 5780 5778 5776 5774 5772 5770 5768 5766 5764 5761 5759 5756 5753 5750 5748 5744 5742
5820 5820 5820 5819 5820 5819 5821 5817 5816 5815 5813 5812 5810 5808 5806 5804 5802 5799 5796 5793 5791 5789 5786 5784 5782 5780 5778 5776 5774 5772 5770 5769 5767 5765 5763 5761 5759 5756 5754 5751 5748 5745 5743 5740
5817 5817 5816 5816 5815 5816 5816 5814 5813 5811 5810 5809 5806 5804 5802 5799 5797 5794 5791 5789 5786 5784 5781 5779 5777 5776 5774 5772 5771 5769 5768 5766 5763 5762 5760 5758 5756 5754 5752 5750 5747 5744 5742 5739
5814 5814 5814 5813 5813 5813 5814 5812 5810 5809 5807 5805 5803 5800 5797 5794 5792 5790 5786 5784 5781 5779 5777 5775 5773 5772 5770 5769 5767 5766 5765 5763 5761 5759 5758 5756 5755 5753 5751 5749 5746 5744 5741 5739
5812 5811 5811 5810 5810 5810 5810 5809 5808 5807 5806 5802 5799 5797 5794 5791 5789 5786 5782 5779 5777 5775 5773 5771 5770 5768 5767 5766 5765 5764 5763 5761 5760 5758 5756 5755 5753 5752 5750 5748 5746 5744 5741 5739
5809 5809 5808 5808 5807 5809 5807 5806 5805 5804 5801 5799 5796 5794 5791 5788 5785 5782 5779 5776 5774 5772 5770 5769 5768 5766 5765 5764 5763 5762 5761 5760 5758 5757 5755 5753 5752 5751 5749 5748 5746 5744 5742 5740
5806 5807 5806 5806 5807 5806 5804 5803 5802 5801 5799 5796 5794 5791 5789 5786 5783 5780 5777 5774 5772 5770 5769 5768 5767 5765 5764 5763 5762 5761 5760 5759 5758 5756 5755 5753 5752 5751 5749 5748 5746 5744 5742 5740
5804 5804 5804 5804 5803 5803 5802 5801 5800 5799 5797 5794 5792 5790 5788 5785 5781 5779 5776 5774 5771 5770 5769 5768 5766 5765 5764 5762 5761 5761 5760 5759 5757 5756 5755 5753 5752 5751 5750 5748 5747 5745 5743 5742
5802 5802 5802 5801 5801 5801 5800 5799 5798 5797 5795 5793 5791 5789 5787 5784 5781 5779 5776 5774 5772 5770 5769 5768 5767 5765 5764 5763 5762 5761 5760 5759 5758 5756 5755 5754 5753 5752 5750 5749 5747 5746 5744 5743
5799 5799 5800 5800 5799 5799 5798 5797 5796 5795 5794 5792 5790 5788 5786 5784 5781 5779 5777 5774 5772 5771 5770 5769 5767 5766 5765 5763 5762 5762 5761 5760 5758 5757 5756 5755 5754 5753 5751 5750 5749 5747 5746 5744